Regional Weather Roundup
Issued by NWS Boston, MA

Current Version | Previous Version | Text Only | Print | Product List | Glossary Off
Versions: 1 2 3 4 5 6 7 8 9 10 11 12 13 14 15 16 17 18 19 20 21 22 23 24 25 26 27

000
ASUS41 KBOX 230810
RWRBOX

REGIONAL WEATHER ROUNDUP
NATIONAL WEATHER SERVICE TAUNTON MA
400 AM EDT WED AUG 23 2017

NOTE:  "FAIR" INDICATES FEW OR NO CLOUDS BELOW 12,000 FEET WITH NO
SIGNIFICANT WEATHER AND/OR OBSTRUCTIONS TO VISIBILITY.

MAZALL-230900-
EASTERN MASSACHUSETTS

CITY           SKY/WX    TMP DP  RH WIND       PRES   REMARKS
BOSTON         CLOUDY    75  73  93 SW12      29.68S
BEVERLY        CLOUDY    74  73  97 SW5       29.66F
LAWRENCE       CLOUDY    75  72  90 SW6       29.68F
BEDFORD        CLOUDY    74  70  87 SW3       29.67F
BLUE HILL        N/A     73  71  93 SW17G25   29.70F
NORWOOD        CLOUDY    76  74  93 S6        29.68S
MARSHFIELD     CLOUDY    77  73  88 SW10G21   29.69F
PLYMOUTH       LGT RAIN  74  70  87 SW13      29.72F
TAUNTON        CLOUDY    75  70  84 S12       29.70F
NEW BEDFORD    CLOUDY    73  71  93 SW14      29.72F
$$

MAZALL-230900-
CAPE COD AND THE ISLANDS

CITY           SKY/WX    TMP DP  RH WIND       PRES   REMARKS
FALMOUTH       CLOUDY    75  73  94 SW20G26   29.75F
HYANNIS        CLOUDY    75  73  93 SW20G28   29.74F
CHATHAM        CLOUDY    74  74 100 SW10G28   29.77F
PROVINCETOWN   CLOUDY    73  71  93 SW20G26   29.72F
NANTUCKET      CLOUDY    71  71 100 S18       29.78F FOG
MARTHAS VNYRD  CLOUDY    73  71  93 SW13      29.76F
$$

MAZALL-230900-
CENTRAL AND WESTERN MASSACHUSETTS

CITY           SKY/WX    TMP DP  RH WIND       PRES   REMARKS
WORCESTER      CLOUDY    71  68  90 W16       29.71F
FITCHBURG      CLOUDY    75  70  84 W8G21     29.69F
ORANGE         CLOUDY    72  70  93 SW9       29.69F
SPRINGFIELD    CLOUDY    72  69  93 SW6       29.69S
WESTFIELD      MOCLDY    70  70 100 S6        29.70F
NORTH ADAMS    LGT RAIN  69  65  86 W7G16     29.73R
PITTSFIELD     PTCLDY    68  66  93 SW5       29.73S
$$

RIZALL-230900-
RHODE ISLAND

CITY           SKY/WX    TMP DP  RH WIND       PRES   REMARKS
PROVIDENCE     CLOUDY    74  72  93 SW10      29.72F
NEWPORT        CLOUDY    72  72 100 S10G17    29.73F FOG
BLOCK ISLAND   CLOUDY    71  70  96 SW15      29.75F
WESTERLY       CLOUDY    74  72  93 SW8       29.73F
$$

CTZALL-230900-
CONNECTICUT

CITY           SKY/WX    TMP DP  RH WIND       PRES   REMARKS
BRADLEY INTL   CLOUDY    73  71  93 SW6       29.70F
HARTFORD       CLOUDY    75  71  87 SW7       29.70S
BRIDGEPORT     PTCLDY    74  71  91 SW9       29.74R
DANBURY        CLOUDY    72  70  93 W7        29.76S
GROTON         CLOUDY    73  70  90 SW8       29.72F
NEW HAVEN      PTCLDY    74  71  91 SW7       29.74S
CHESTER        MOCLDY    72  72 100 SW6       29.74S
MERIDEN        CLOUDY    72  69  90 SW3       29.73S
WILLIMANTIC    CLOUDY    74  71  91 SW6       29.71F
OXFORD         CLOUDY    70  69  97 CALM      29.77S
$$

MEZ002-015-021-024-NHZ003-005-008-011-012-014-VTZ005-008-230900-
NORTHERN NEW ENGLAND

CITY           SKY/WX    TMP DP  RH WIND       PRES   REMARKS
PORTLAND ME    CLOUDY    69  67  93 S9        29.63F
BANGOR ME      CLOUDY    71  68  90 S10       29.61R
CONCORD NH     CLOUDY    70  69  97 S6        29.67S
MANCHESTER NH  LGT RAIN  73  68  84 SW8       29.66S
NASHUA NH      LGT RAIN  73  72  96 W6        29.69R
PORTSMOUTH NH  CLOUDY    71  70  96 SW3       29.65F
JAFFREY NH     MOCLDY    70  69  97 S5        29.72S
KEENE NH         N/A    N/A N/A N/A MISG        N/A
BURLINGTON VT  PTCLDY    70  67  90 SW7       29.63R
MT. WASHINGTON FOG       52  52 100 W47G54      N/A  VSB 0
$$

NYZ052-076-230900-
EASTERN NEW YORK

CITY           SKY/WX    TMP DP  RH WIND       PRES   REMARKS
ALBANY         CLOUDY    69  64  84 W6        29.72S
NEW YORK CITY  CLOUDY    74  73  97 SW9       29.74F
$$

ANZALL-230900-
MARINE OBSERVATIONS

STATION/POSITION TIME  TEMP    WIND        PRES    VSBY  WAVE
                       AIR SEA DIR/SP/G                  HT/PER
                 (UTC) (F)     (DEG/KT/KT) (MB)    (MI)  (FT/S)
BOSTON BUOY      0750   69 66  200/ 12/ 14 1005.0F         2/ 4
BUZZARDS BAY     0700   71     210/ 23/ 24 1007.9F
NANTUCKET SOUND  0750   73 72  210/ 19/ 23 1007.6F         3/ 4
MASS BAY-STELLWA 0704   69 64  170/ 12/ 14 1004.2F         3/ 5
ISLE OF SHOALS   0700   70     210/ 13/ 13 1004.5F
S OF BLOCK IS    NOT AVBL
$$

......................KEY.........................
  SKY/WX - SKY CONDITION/PRESENT WEATHER
  TMP    - TEMPERATURE IN FAHRENHEIT
  DWPT   - DEWPOINT IN FAHRENHEIT
  RH     - RELATIVE HUMIDITY IN PERCENT
  WIND   - DIRECTION AND SPEED IN MPH
  PRES   - MEAN SEA LEVEL PRESSURE IN INCHES OF HG
  WCI    - WIND CHILL INDEX
  VSB    - VISIBILITY IN MILES
  HX     - HEAT INDEX
  TC     - TEMPERATURE IN CELSIUS
  VRB    - VARIABLE WIND DIRECTION
  N/A    - NOT AVAILABLE




USA.gov is the U.S. government's official web portal to all federal, state and local government web resources and services.